| time (UTC) | temp F | wind direction | speed knots | gust knots | rain 1hr in | rain 24hr in | rain mn in | humidity % | barometer mb |
| 20260507114558 | 52 | 59 | 4.3 | 0.0 | 0.00 | 0.00 | 0.00 | 78 | 1014.8 |
| 20260507113052 | 52 | 34 | 4.3 | 0.0 | 0.00 | 0.00 | 0.00 | 76 | 1014.9 |
| 20260507111547 | 52 | 68 | 3.5 | 0.0 | 0.00 | 0.00 | 0.00 | 75 | 1014.7 |
| 20260507110044 | 53 | 71 | 3.5 | 0.0 | 0.00 | 0.00 | 0.00 | 74 | 1014.9 |
| 20260507104542 | 53 | 15 | 3.5 | 0.0 | 0.00 | 0.00 | 0.00 | 73 | 1014.9 |
| 20260507103040 | 53 | 339 | 4.3 | 0.0 | 0.00 | 0.00 | 0.00 | 72 | 1015.0 |
| 20260507101537 | 54 | 28 | 3.5 | 0.0 | 0.00 | 0.00 | 0.00 | 70 | 1014.5 |
| 20260507100037 | 54 | 63 | 3.5 | 0.0 | 0.00 | 0.00 | 0.00 | 69 | 1014.6 |
| 20260507094530 | 55 | 26 | 3.5 | 0.0 | 0.00 | 0.00 | 0.00 | 68 | 1014.4 |
| 20260507093027 | 55 | 39 | 2.6 | 0.0 | 0.00 | 0.00 | 0.00 | 66 | 1014.3 |
| 20260507091526 | 56 | 33 | 3.5 | 0.0 | 0.00 | 0.00 | 0.00 | 65 | 1014.1 |
| 20260507090021 | 57 | 24 | 3.5 | 0.0 | 0.00 | 0.00 | 0.00 | 65 | 1014.0 |
| 20260507084517 | 57 | 44 | 3.5 | 0.0 | 0.00 | 0.00 | 0.00 | 64 | 1013.6 |
| 20260507083015 | 58 | 34 | 4.3 | 0.0 | 0.00 | 0.00 | 0.00 | 63 | 1013.4 |
| 20260507081512 | 58 | 11 | 4.3 | 0.0 | 0.00 | 0.00 | 0.00 | 63 | 1013.1 |
| 20260507080010 | 58 | 58 | 3.5 | 0.0 | 0.00 | 0.00 | 0.00 | 64 | 1013.3 |
| 20260507074508 | 58 | 49 | 2.6 | 0.0 | 0.00 | 0.00 | 0.00 | 63 | 1013.0 |
| 20260507073006 | 59 | 56 | 2.6 | 0.0 | 0.00 | 0.00 | 0.00 | 61 | 1012.9 |
| 20260507071504 | 59 | 71 | 2.6 | 0.0 | 0.00 | 0.00 | 0.00 | 60 | 1012.6 |
| 20260507070100 | 60 | 55 | 2.6 | 0.0 | 0.00 | 0.00 | 0.00 | 60 | 1012.6 |
| 20260507064610 | 61 | 70 | 2.6 | 0.0 | 0.00 | 0.00 | 0.00 | 60 | 1012.4 |
| 20260507063103 | 61 | 58 | 2.6 | 0.0 | 0.00 | 0.00 | 0.00 | 60 | 1012.1 |
| 20260507061552 | 62 | 74 | 2.6 | 0.0 | 0.00 | 0.00 | 0.00 | 60 | 1011.9 |
| 20260507060048 | 62 | 99 | 1.7 | 0.0 | 0.00 | 0.00 | 0.00 | 59 | 1011.5 |
| 20260507054546 | 63 | 65 | 2.6 | 0.0 | 0.00 | 0.00 | 0.00 | 58 | 1011.3 |
| 20260507053044 | 63 | 123 | 1.7 | 0.0 | 0.00 | 0.00 | 0.00 | 56 | 1011.1 |
| 20260507051541 | 64 | 30 | 2.6 | 0.0 | 0.00 | 0.00 | 0.00 | 54 | 1010.9 |
| 20260507050038 | 64 | 98 | 2.6 | 0.0 | 0.00 | 0.00 | 0.00 | 51 | 1010.8 |
| 20260507044537 | 65 | 49 | 3.5 | 0.0 | 0.00 | 0.00 | 0.00 | 50 | 1011.0 |
| 20260507043035 | 65 | 59 | 2.6 | 0.0 | 0.00 | 0.00 | 0.00 | 49 | 1010.7 |
| 20260507041542 | 66 | 47 | 3.5 | 0.0 | 0.00 | 0.00 | 0.00 | 48 | 1010.2 |
| 20260507040033 | 67 | 88 | 2.6 | 0.0 | 0.00 | 0.00 | 0.00 | 47 | 1009.9 |
| 20260507034540 | 67 | 109 | 2.6 | 0.0 | 0.00 | 0.00 | 0.00 | 46 | 1009.7 |
| 20260507033029 | 68 | 107 | 2.6 | 0.0 | 0.00 | 0.00 | 0.00 | 46 | 1009.3 |
| 20260507031529 | 68 | 71 | 2.6 | 0.0 | 0.00 | 0.00 | 0.00 | 44 | 1009.0 |
| 20260507030029 | 69 | 67 | 2.6 | 0.0 | 0.00 | 0.00 | 0.00 | 43 | 1008.8 |
| 20260507024531 | 70 | 60 | 3.5 | 0.0 | 0.00 | 0.00 | 0.00 | 42 | 1008.6 |
| 20260507023027 | 71 | 98 | 3.5 | 0.0 | 0.00 | 0.00 | 0.00 | 41 | 1008.1 |
| 20260507021528 | 72 | 86 | 3.5 | 0.0 | 0.00 | 0.00 | 0.00 | 39 | 1007.8 |
| 20260507020030 | 74 | 78 | 2.6 | 0.0 | 0.00 | 0.00 | 0.00 | 36 | 1007.6 |
| 20260507014527 | 74 | 106 | 2.6 | 0.0 | 0.00 | 0.00 | 0.00 | 35 | 1007.3 |
| 20260507013026 | 76 | 105 | 2.6 | 0.0 | 0.00 | 0.00 | 0.00 | 33 | 1007.2 |
| 20260507011527 | 77 | 96 | 2.6 | 0.0 | 0.00 | 0.00 | 0.00 | 31 | 1007.0 |
| 20260507010032 | 77 | 142 | 2.6 | 0.0 | 0.00 | 0.00 | 0.00 | 30 | 1006.8 |
| 20260507004526 | 78 | 97 | 1.7 | 0.0 | 0.00 | 0.00 | 0.00 | 30 | 1006.7 |
| 20260507003024 | 78 | 123 | 1.7 | 0.0 | 0.00 | 0.00 | 0.00 | 30 | 1006.5 |
| 20260507001529 | 78 | 169 | 0.9 | 0.0 | 0.00 | 0.00 | 0.00 | 30 | 1006.5 |
| 20260507000028 | 78 | 169 | 1.7 | 0.0 | 0.00 | 0.00 | 0.00 | 29 | 1006.4 |
| 20260506234542 | 79 | 140 | 1.7 | 0.0 | 0.00 | 0.00 | 0.00 | 29 | 1006.5 |
| 20260506233023 | 79 | 146 | 0.9 | 0.0 | 0.00 | 0.00 | 0.00 | 29 | 1006.5 |
| 20260506231523 | 79 | 166 | 1.7 | 0.0 | 0.00 | 0.00 | 0.00 | 29 | 1006.5 |
| 20260506230022 | 79 | 48 | 1.7 | 0.0 | 0.00 | 0.00 | 0.00 | 30 | 1006.6 |
| 20260506224527 | 79 | 117 | 1.7 | 0.0 | 0.00 | 0.00 | 0.00 | 31 | 1006.7 |
| 20260506223022 | 78 | 179 | 2.6 | 0.0 | 0.00 | 0.00 | 0.00 | 31 | 1006.7 |
| 20260506221520 | 78 | 175 | 1.7 | 0.0 | 0.00 | 0.00 | 0.00 | 32 | 1006.8 |
| 20260506220031 | 80 | 335 | 0.9 | 0.0 | 0.00 | 0.00 | 0.00 | 32 | 1006.8 |
| 20260506214519 | 79 | 263 | 0.9 | 0.0 | 0.00 | 0.00 | 0.00 | 33 | 1007.0 |
| 20260506213017 | 80 | 269 | 1.7 | 0.0 | 0.00 | 0.00 | 0.00 | 32 | 1007.2 |
| 20260506211519 | 78 | 292 | 0.9 | 0.0 | 0.00 | 0.00 | 0.00 | 32 | 1007.4 |
| 20260506210012 | 77 | 150 | 1.7 | 0.0 | 0.00 | 0.00 | 0.00 | 37 | 1007.6 |
| 20260506204512 | 76 | 82 | 1.7 | 0.0 | 0.00 | 0.00 | 0.00 | 36 | 1007.8 |
| 20260506203013 | 76 | 64 | 1.7 | 0.0 | 0.00 | 0.00 | 0.00 | 39 | 1008.0 |
| 20260506201513 | 74 | 104 | 1.7 | 0.0 | 0.00 | 0.00 | 0.00 | 41 | 1008.2 |
| 20260506200007 | 72 | 177 | 1.7 | 0.0 | 0.00 | 0.00 | 0.00 | 42 | 1008.3 |
| 20260506194505 | 72 | 185 | 1.7 | 0.0 | 0.00 | 0.00 | 0.00 | 46 | 1008.3 |
| 20260506193003 | 71 | 111 | 2.6 | 0.0 | 0.00 | 0.00 | 0.00 | 44 | 1008.5 |
| 20260506191502 | 71 | 115 | 2.6 | 0.0 | 0.00 | 0.00 | 0.00 | 47 | 1008.6 |
| 20260506190100 | 71 | 65 | 1.7 | 0.0 | 0.00 | 0.00 | 0.00 | 48 | 1008.8 |
| 20260506184559 | 70 | 63 | 1.7 | 0.0 | 0.00 | 0.00 | 0.00 | 49 | 1009.0 |
| 20260506183102 | 69 | 115 | 1.7 | 0.0 | 0.00 | 0.00 | 0.00 | 51 | 1009.1 |
| 20260506181625 | 66 | 13 | 2.6 | 0.0 | 0.00 | 0.00 | 0.00 | 53 | 1009.2 |
| 20260506180058 | 66 | 11 | 2.6 | 0.0 | 0.00 | 0.00 | 0.00 | 57 | 1009.4 |
| 20260506174555 | 63 | 55 | 1.7 | 0.0 | 0.00 | 0.00 | 0.00 | 58 | 1009.7 |
| 20260506173122 | 63 | 360 | 2.6 | 0.0 | 0.00 | 0.00 | 0.00 | 62 | 1009.8 |
| 20260506171601 | 61 | 360 | 3.5 | 0.0 | 0.00 | 0.00 | 0.00 | 63 | 1009.9 |
| 20260506164550 | 61 | 360 | 3.5 | 0.0 | 0.00 | 0.00 | 0.00 | 62 | 1009.8 |
| 20260506163050 | 60 | 360 | 3.5 | 0.0 | 0.00 | 0.00 | 0.00 | 63 | 1009.8 |
| 20260506161549 | 58 | 360 | 3.5 | 0.0 | 0.00 | 0.00 | 0.00 | 66 | 1009.7 |
| 20260506160059 | 57 | 360 | 4.3 | 0.0 | 0.00 | 0.00 | 0.00 | 66 | 1009.7 |
| 20260506154547 | 56 | 360 | 4.3 | 0.0 | 0.00 | 0.00 | 0.00 | 68 | 1009.4 |
| 20260506153043 | 55 | 360 | 3.5 | 0.0 | 0.00 | 0.00 | 0.00 | 67 | 1009.4 |
| 20260506151544 | 56 | 360 | 4.3 | 0.0 | 0.00 | 0.00 | 0.00 | 68 | 1009.2 |
| 20260506150040 | 55 | 360 | 3.5 | 0.0 | 0.00 | 0.00 | 0.00 | 68 | 1009.1 |
| 20260506144542 | 55 | 360 | 4.3 | 0.0 | 0.00 | 0.00 | 0.00 | 68 | 1008.9 |
| 20260506143037 | 54 | 360 | 3.5 | 0.0 | 0.00 | 0.00 | 0.00 | 69 | 1008.7 |
| 20260506141535 | 54 | 360 | 3.5 | 0.0 | 0.00 | 0.00 | 0.00 | 70 | 1008.4 |
| 20260506140035 | 54 | 360 | 5.2 | 0.0 | 0.00 | 0.00 | 0.00 | 71 | 1008.4 |
| 20260506134528 | 54 | 360 | 3.5 | 0.0 | 0.00 | 0.00 | 0.00 | 71 | 1008.3 |
| 20260506133024 | 54 | 360 | 3.5 | 0.0 | 0.00 | 0.00 | 0.00 | 71 | 1007.9 |
| 20260506131538 | 54 | 360 | 3.5 | 0.0 | 0.00 | 0.00 | 0.00 | 71 | 1007.5 |
| 20260506130032 | 55 | 360 | 3.5 | 0.0 | 0.00 | 0.00 | 0.00 | 71 | 1006.7 |
| 20260506124514 | 55 | 360 | 2.6 | 0.0 | 0.00 | 0.00 | 0.00 | 71 | 1006.4 |
| 20260506123008 | 55 | 360 | 2.6 | 0.0 | 0.00 | 0.00 | 0.00 | 70 | 1005.9 |
| 20260506121505 | 57 | 360 | 2.6 | 0.0 | 0.00 | 0.00 | 0.00 | 69 | 1005.7 |
| 20260506120003 | 58 | 65 | 1.7 | 0.0 | 0.00 | 0.00 | 0.00 | 67 | 1005.2 |